Lid_Strength_Index
3 3 2 2 3 5 6 7 8 9 8 8 7 7 8 8 8 7 6 7 6 6 6 5 5 3 4 4 4 4 5 4 4 5 5 4 4 3 3 5 4 4 4
4 4 4 3 4 5 7 8 9 9 8 8 8 6 7 6 7 7 7 6 6 6 6 5 4 4 4 4 4 4 5 4 4 7 6 7 4 5 3 3 4 5 4
5 5 5 3 4 5 6 7 7 7 6 7 6 6 6 6 7 8 8 7 6 5 4 4 4 4 4 4 4 4 4 5 5 5 6 8 9 7 4 5 4 5 5
5 5 6 4 3 3 4 5 6 6 7 6 6 7 8 7 7 8 7 7 6 6 5 4 4 4 4 4 5 4 5 5 6 5 5 5 6 8 8 6 5 6 6
4 5 6 5 3 2 1 2 4 5 5 5 4 4 7 6 6 6 7 7 6 5 4 4 4 4 4 4 4 5 5 5 6 6 7 7 7 7 9 10 8 7 7
4 5 5 5 4 3 2 2 3 3 3 5 4 4 5 6 7 7 7 8 6 5 4 4 4 4 5 5 5 5 5 5 6 6 7 7 8 9 9 10 10 10 9
6 6 6 6 5 5 4 4 4 5 5 5 5 5 5 6 7 7 8 8 6 6 5 5 5 5 5 5 5 5 5 6 7 7 8 7 8 8 9 10 11 11 10
6 6 6 6 6 5 5 6 6 7 6 6 6 5 6 7 7 7 7 6 6 5 5 5 5 5 5 5 5 6 6 7 7 8 8 8 8 8 9 10 11 12 11
5 6 7 6 6 6 6 6 7 7 7 7 7 7 6 7 7 7 6 6 5 5 5 5 6 6 6 6 6 7 7 7 7 8 8 9 9 9 9 9 10 11 14
5 5 6 7 7 7 7 6 7 7 7 7 7 8 7 7 7 6 6 6 5 5 5 5 6 6 6 6 7 7 7 7 8 8 8 9 9 9 9 9 9 10 11
5 5 5 6 7 7 8 7 8 8 8 8 8 8 8 7 7 6 6 5 5 5 6 6 6 7 7 7 7 7 7 8 8 8 8 9 8 9 9 9 9 10 10
4 5 5 6 6 7 7 7 7 8 8 8 7 8 7 7 6 6 5 5 6 5 6 6 7 7 7 7 7 8 7 8 8 8 8 8 8 9 10 10 11 10 10
4 5 5 6 6 6 7 7 7 8 7 8 8 7 6 6 6 6 5 5 6 6 6 6 7 7 8 8 7 7 7 8 8 8 8 8 9 10 10 11 11 11 10
5 5 6 6 6 6 6 7 7 7 7 8 8 7 6 6 6 6 6 6 6 6 6 7 7 8 9 9 8 7 8 8 8 7 8 8 10 11 11 12 12 11 11
5 5 6 6 5 6 6 6 7 7 7 8 7 7 6 6 6 6 6 6 6 6 6 7 8 9 11 12 11 10 8 8 8 8 8 8 9 10 11 12 12 12 12
5 5 5 5 5 6 6 6 7 7 7 7 7 6 6 6 6 6 6 6 6 7 7 7 8 10 12 12 12 12 10 8 8 9 9 9 9 11 11 11 11 11 12
5 5 5 5 5 5 5 6 7 7 7 7 7 7 6 7 6 6 6 7 7 7 7 7 8 10 12 12 12 12 11 8 9 9 9 10 10 12 12 12 10 10 10
4 4 4 4 4 5 5 6 6 7 7 7 7 6 7 7 7 7 7 7 7 7 8 8 8 11 13 13 12 12 10 9 9 9 10 11 11 13 13 12 11 11 11
4 3 4 4 4 5 5 6 6 7 7 7 7 7 7 7 7 7 7 7 7 8 8 8 8 10 12 13 13 12 9 9 9 9 10 11 13 12 12 12 12 12 12
3 3 4 3 4 5 5 6 7 7 7 7 7 7 7 7 7 7 7 7 7 8 8 8 8 10 12 13 13 13 10 11 10 9 12 12 12 12 12 13 13 14 13
3 3 3 3 4 4 5 6 6 7 7 7 7 7 7 7 7 7 7 7 8 8 9 9 9 9 11 13 12 12 11 12 11 11 11 11 12 11 11 11 12 13 12
3 3 3 3 4 4 5 6 6 6 6 7 8 8 8 8 7 7 7 8 8 9 9 9 10 10 11 12 12 12 13 13 11 11 12 13 11 11 11 12 11 11 13
3 3 3 3 4 4 5 6 6 6 7 8 8 8 8 8 8 8 8 9 9 9 9 10 10 10 10 12 12 12 12 12 12 13 12 12 11 11 12 11 11 13 13
3 3 3 3 4 4 5 5 6 6 7 8 9 9 9 9 9 8 8 9 9 9 9 9 10 11 10 11 11 11 12 13 12 13 12 13 14 13 14 13 13 12 13
3 3 3 3 3 4 4 5 6 6 8 9 9 9 9 9 9 9 9 8 12 9 9 9 10 11 12 14 14 14 15 15 15 15 13 14 14 15 14 14 14 13 13
5 3 3 3 3 3 4 5 5 7 8 9 9 9 10 10 10 12 14 13 13 13 13 12 12 14 14 14 14 15 15 15 14 14 14 15 15 15 15 15 14 14 14